Voltar ao catálogo

STARLINK-31651

AtivoComunicaçõesVLEO
NORAD 59860·PAYLOAD·🇺🇸 United States

Lançado May 24, 2024 de Cape Canaveral Space Force Station

Loading…

Próximas Passagens (próximas 24 horas)

TLE

AtualizadoSource: CelesTrak SupGP

Época: Sep 14, 2026, 13:40 UTC

1 59860C 24098C   26257.56993056  .00052299  00000+0  18944-2 0  2577
2 59860  43.0003 291.2947 0001480 275.4624  63.2633 15.27550446    10

Acompanhe STARLINK-31651 em tempo real com AllMySat

Download on the App Store